Hourly Weather Roundup
Issued by NWS Central Illinois

Home | Current Version | Previous Version | Text Only | Print | Product List | Glossary On
Versions: 1 2 3 4 5 6 7 8 9 10 11 12 13 14 15 16 17 18 19 20 21 22 23 24 25 26 27 28 29 30 31 32 33 34 35 36 37 38 39 40 41 42 43 44 45 46 47 48 49 50
617
NZUS43 KILX 211310
HWRILX

Area Weather Roundup
National Weather Service Lincoln IL
800 AM CDT MON AUG 21 2017

NOTE:  "FAIR" indicates few or no clouds below 12,000 feet, with
       no sigificant weather and/or obstructions to visibility.


CITY           SKY/WX    TMP DP  RH WIND       PRES   REMARKS
Bloomington    CLOUDY    72  71  97 SW8       30.11S
Champaign      CLOUDY    74  72  93 S9        30.10S
Danville       CLOUDY    73  72  96 CALM      30.08R
Decatur        CLOUDY    75  72  90 SW9       30.10R
Effingham      CLOUDY    76  74  93 CALM      30.14R
Flora          CLOUDY    76  73  88 CALM      30.13R
Galesburg      TSTM      68  66  93 NE6       30.15S
Jacksonville   CLOUDY    74  72  91 S7        30.08F
Lacon          CLOUDY    70  70 100 CALM      30.08R
Lawrenceville  MOSUNNY   74  70  87 S5        30.13S
Litchfield     CLOUDY    74  73  96 S3        30.11S
$$


CITY           SKY/WX    TMP DP  RH WIND       PRES   REMARKS
Lincoln        CLOUDY    74  74 100 S3        30.08S
Macomb         TSTM      69  68  97 W8G23     30.15R
Mattoon        PTSUNNY   75  73  93 S8        30.11R
Mt Carmel AP   MOSUNNY   74  70  87 CALM      30.14R
Olney-Noble AP MOSUNNY   75  73  92 S3        30.13S
Paris AP       MOSUNNY   75  73  91 SW9       30.12S
Peoria         CLOUDY    72  71  97 S3        30.09R
Pontiac        PTSUNNY   73  73  99 SW3       30.09R
Rantoul        CLOUDY    75  74  97 CALM      30.10S
Robinson       MOSUNNY   75  71  88 S6        30.13S
Springfield    CLOUDY    78  75  90 SW5       30.09S HX  81
Taylorville    CLOUDY    75  74  95 SW6       30.10F
$$

...REGIONAL REPORTS...


CITY           SKY/WX    TMP DP  RH WIND       PRES   REMARKS
Chicago O`Hare CLOUDY    73  68  84 SW5       30.05S
Kankakee       CLOUDY    72  72  98 SW5       30.08S
Moline         RAIN      72  66  81 NW9G20    30.11F
Mount Sterling CLOUDY    72  69  92 S6        30.08S
Mount Vernon     N/A     75  71  87 CALM      30.13S
Pittsfield     CLOUDY    75  73  92 S5        30.10F
Quincy         CLOUDY    72  69  90 S8        30.08S
Rockford       CLOUDY    71  68  90 CALM      30.09R FOG
$$


CITY           SKY/WX    TMP DP  RH WIND       PRES   REMARKS
Burlington     CLOUDY    70  69  97 N6        30.10F
Cedar Rapids   LGT RAIN  67  66  97 N3        30.11F
Des Moines     LGT RAIN  68  65  90 SE7       30.10F
Kirksville     CLOUDY    71  66  84 N8        30.13R
Ottumwa        LGT RAIN  70  67  90 NW6       30.14R
St Louis       PTSUNNY   79  74  84 SW9       30.11R HX  82
$$


CITY           SKY/WX    TMP DP  RH WIND       PRES   REMARKS
Terre Haute    PTSUNNY   79  71  76 SW8       30.12S HX  82
Evansville     SUNNY     76  69  79 CALM      30.14F
Indianapolis   CLOUDY    76  69  79 S6        30.12S
Lafayette      CLOUDY    72  70  93 CALM      30.10S
Madison        CLOUDY    67  65  93 CALM      30.08R FOG
Milwaukee      CLOUDY    74  69  85 W3        30.06S
$$






USA.gov is the U.S. government's official web portal to all federal, state and local government web resources and services.